Location: Mt. Chestnut Observatory
(40.9038°N, 79.9956°W)
Time: 12:02:30
(UTC-05:00)

Daily predictions for brighter satellites

Satellite Brightness Start Highest point End
(mag) Time Altitude Azimuth Time Altitude Azimuth Time Altitude Azimuth
Thor Agena Rocket 3.6 17:42:24 10° NNE 17:47:38 63° ESE 17:52:45 10° S
Cosmos 2278 Rocket 2.9 17:42:36 10° N 17:47:42 32° ENE 17:52:45 10° ESE
SPOT 3 Rocket 3.5 17:42:45 10° SSE 17:47:52 72° ENE 17:53:02 10° N
BREEZE-M DEB (TANK) 3.6 17:46:19 10° WNW 17:50:40 62° SW 17:56:17 10° SE
SMAP 3.1 17:47:07 10° SSE 17:51:46 88° E 17:56:27 10° NNW
Cosmos 1408 Rocket 4.3 17:47:54 10° SSW 17:52:18 60° W 17:56:41 10° N
USA 116 3.2 17:49:26 10° NNE 17:52:40 87° W 17:55:44 10° SSW
Cosmos 2228 Rocket 3.0 17:48:31 10° N 17:52:56 69° E 17:57:21 10° SSE
Elektron 3 4.4 17:50:37 10° NW 17:56:08 90° WNW 17:59:15 10° SE
Cosmos 1908 3.5 17:54:00 10° NNW 17:57:53 74° W 18:01:46 10° S
Cosmos 1844 3.7 17:53:47 10° NNW 17:59:33 67° ENE 18:05:18 10° SSE
Cosmos 841 Rocket 3.6 17:55:22 10° SSW 18:00:38 89° WNW 18:05:57 10° NNE
Cosmos 44 Rocket 3.5 17:55:53 10° SSW 18:00:57 65° ESE 18:05:59 10° NE
Cosmos 1674 3.1 17:58:00 10° SSW 18:01:47 67° W 18:05:38 10° N
Cosmos 1340 Rocket 4.3 17:59:09 10° SE 18:01:50 18° E 18:04:32 10° NE
CENTAUR R/B 3.0 17:57:03 10° SW 18:03:03 63° NW 18:09:54 10° NNE
IDEFIX/ARIANE 42P 3.3 18:00:58 10° S 18:06:06 60° W 18:11:17 10° NNW
SL-14 R/B 3.8 18:04:28 10° SSE 18:08:06 37° E 18:11:47 10° NNE
Lacrosse 5 3.9 18:05:30 10° WNW 18:08:56 18° NNW 18:12:23 10° NNE
COSMOS 2428 3.4 18:06:15 10° SW 18:11:51 55° WNW 18:17:29 10° NNE
Cosmos 2237 Rocket 2.4 18:07:12 10° S 18:12:37 51° ESE 18:18:03 10° NNE
Cosmos 1484 Rocket 2.7 18:09:04 10° SSE 18:12:56 68° ENE 18:16:55 10° N
Cosmos 1743 Rocket 3.9 18:10:42 10° SSW 18:15:09 73° W 18:19:39 10° N
CZ-2C R/B 3.6 18:10:27 10° S 18:15:17 48° W 18:20:00 10° NNW
Cosmos 1726 2.2 18:12:20 10° N 18:16:02 52° E 18:19:43 10° SSE
Milstar 3 4.4 18:10:59 10° WSW 18:16:40 27° S 18:22:22 10° SE
SL-16 R/B 3.3 18:13:50 10° SSE 18:18:12 24° E 18:21:40 14° ENE
Cosmos 2151 3.1 18:14:26 10° S 18:18:31 53° E 18:22:37 10° NNE
Cosmos 1328 Rocket 4.1 18:15:07 10° NNW 18:19:31 62° W 18:23:54 10° S
Cosmos 1300 2.7 18:16:01 10° N 18:19:48 57° E 18:23:34 10° SSE
MSX 4.2 18:15:40 10° S 18:21:20 69° WSW 18:27:05 10° NNW
Cosmos 1515 Rocket 3.9 18:23:13 10° NNW 18:27:40 69° W 18:32:05 10° S
Cosmos 2297 4.4 18:22:46 10° N 18:27:54 33° ENE 18:33:00 10° ESE
Aureole 2 Rocket 3.0 18:27:19 10° S 18:30:45 41° ESE 18:33:25 17° NE
SKYMED 2 3.5 18:27:32 10° NNE 18:31:54 88° ESE 18:36:14 10° SSW
Cosmos 1151 Rocket 3.0 18:28:39 10° N 18:32:57 90° W 18:37:14 10° S
Cosmos 1805 Rocket 4.1 18:30:19 10° SSE 18:34:22 35° E 18:38:22 10° NNE
BREEZE M DEB (TANK) 1.7 18:34:09 10° NW 18:36:42 38° NNE 18:37:00 36° NE
Lacrosse 5 rocket 1.5 18:34:48 10° NNW 18:38:27 43° NE 18:40:18 25° E
Abrixas 2.8 18:36:07 10° SW 18:38:57 48° SE 18:39:46 35° E
Cosmos 1500 Rocket 4.4 18:37:36 10° SSW 18:41:48 50° W 18:46:03 10° N
Cosmos 1844 Rocket 4.1 18:37:24 10° NW 18:42:40 41° WSW 18:47:53 10° S
CZ-4 R/B 4.5 18:41:23 10° SW 18:43:56 17° W 18:46:32 10° NW
Meteor 1-28 Rocket 3.1 18:40:57 10° NNE 18:44:40 87° ESE 18:48:23 10° SSW
Meteor 1-11 4.2 18:40:13 10° S 18:45:52 80° E 18:51:39 10° NNE
Cosmos 1634 Rocket 4.5 18:39:49 10° NNW 18:45:56 64° W 18:51:59 10° S
Cosmos 372 Rocket 3.9 18:49:43 10° NNW 18:54:50 86° WSW 18:59:56 10° SSE
Sich 1 3.5 18:52:05 10° SSE 18:56:13 39° E 18:57:08 35° ENE
NOSS 0 Rocket 4.4 18:52:28 10° SW 18:58:37 62° WNW 19:04:48 10° NNE
Cosmos 1980 4.2 18:54:38 10° SW 19:00:14 61° WNW 19:05:53 10° NNE
Cosmos 1633 Rocket 3.5 18:56:39 10° SSE 19:00:37 38° E 19:00:37 38° E
FengYun 1-2 T 4.4 18:56:47 10° SE 19:02:07 49° ENE 19:07:25 10° N
Cosmos 540 Rocket 4.1 19:00:16 10° SW 19:05:19 55° WNW 19:10:25 10° N
FENGYUN 3A 3.8 19:00:42 10° SE 19:05:49 48° ENE 19:10:59 10° N
SJ-6B 2.8 19:04:02 10° SSE 19:08:05 90° W 19:12:14 10° NNW
USA 215 3.2 19:01:56 10° SE 19:08:30 89° SSW 19:15:06 10° NW
ALOS 2.3 19:04:18 10° SSE 19:08:48 51° ENE 19:13:19 10° N
OTV 4 2.4 19:06:54 10° WSW 19:09:15 22° SSW 19:09:45 21° S
Meteor 2-10 4.4 19:04:24 10° NNW 19:09:27 65° W 19:14:36 10° S
Cosmos 44 4.1 19:05:03 10° SW 19:10:10 52° NW 19:13:37 19° NNE
Cosmos 2333 Rocket 3.4 19:09:51 10° SW 19:15:07 39° WNW 19:20:25 10° N
METEOR-M 4.3 19:10:34 10° S 19:15:54 73° WSW 19:21:17 10° NNW
Resurs 01 Rocket 1.7 19:17:34 54° NE 19:17:34 54° NE 19:21:29 10° N
Cosmos 1461 2.7 19:14:07 10° SSW 19:18:18 70° ESE 19:18:18 70° ESE
Cosmos 1703 3.5 19:16:07 10° SSW 19:19:59 66° W 19:21:52 28° N
Cosmos 1707 Rocket 3.5 19:18:41 10° N 19:23:02 82° W 19:27:21 10° S
Cosmos 2219 Rocket 4.0 19:19:56 10° WSW 19:24:39 27° NW 19:29:23 10° N
SL-19 R/B 4.3 19:23:08 10° SSE 19:29:08 87° WSW 19:34:49 10° NNW
FREGAT/IRIS 4.3 19:26:59 10° SSW 19:32:19 13° NNW 19:32:42 10° NNW
Cosmos 2278 Rocket 3.7 19:26:37 10° NW 19:31:47 37° WSW 19:36:55 10° S
Cosmos 1666 Rocket 3.6 19:28:49 10° SSW 19:33:08 73° W 19:34:05 52° NNW
Cosmos 1626 2.7 19:30:28 10° SSW 19:34:02 56° W 19:34:02 56° W
Spot 2 Rocket 3.3 19:32:15 10° SSE 19:37:18 89° ENE 19:42:22 10° NNW
Cosmos 1538 Rocket 4.2 19:42:15 10° SSW 19:47:30 68° WNW 19:48:47 50° N
Cosmos 1356 Rocket 4.3 19:43:49 10° SSW 19:47:32 44° W 19:47:32 44° W
USA 229 DEB 3.6 19:42:46 10° SSW 19:49:29 63° ESE 19:49:29 63° ESE
USA 229 3.6 19:42:53 10° SSW 19:49:32 62° ESE 19:49:32 62° ESE
Lacrosse 5 4.2 19:51:35 10° NNW 19:52:57 12° N 19:52:57 12° N
Cosmos 2237 Rocket 4.1 19:52:24 10° WSW 19:56:56 25° NW 20:01:05 12° N
Aureole 1 Rocket 3.8 19:56:36 10° SSW 20:01:10 73° SW 20:01:10 73° SW
SL-16 R/B 3.0 19:56:30 10° SW 20:01:56 48° WNW 20:03:37 37° NNW
Cosmos 2369 Rocket 4.4 19:57:53 10° N 19:58:25 12° N 19:58:25 12° N
Lacrosse 5 rocket 3.9 20:14:25 10° WNW 20:16:05 18° W 20:16:05 18° W
